GW7701 Weather Reports


time (UTC)temp
C
wind
direction
speed
KPH
gust
KPH
rain 1hr
cm
rain 24hr
cm
rain mn
cm
humidity
%
barometer
mb
20260901115041 20 240 3.2 9.7 0.00 0.00 0.00 75 1013.9
20260901114603 20 273 4.8 9.7 0.00 0.00 0.00 75 1014.2
20260901114044 20 242 6.4 9.7 0.00 0.00 0.00 75 1014.0
20260901113542 19 243 4.8 9.7 0.00 0.00 0.00 77 1013.7
20260901113058 19 257 4.8 9.7 0.00 0.00 0.00 76 1013.8
20260901112545 19 267 4.8 9.7 0.00 0.00 0.00 75 1013.8
20260901112042 19 252 3.2 8.0 0.00 0.00 0.00 75 1013.7
20260901111604 19 240 4.8 12.9 0.00 0.00 0.00 74 1013.7
20260901111042 19 231 4.8 12.9 0.00 0.00 0.00 73 1013.6
20260901110541 20 241 6.4 16.1 0.00 0.00 0.00 72 1013.6
20260901110103 20 251 6.4 16.1 0.00 0.00 0.00 73 1013.5
20260901105542 19 234 4.8 9.7 0.00 0.00 0.00 75 1013.5
20260901105041 19 238 4.8 8.0 0.00 0.00 0.00 75 1013.5
20260901104602 19 205 4.8 11.3 0.00 0.00 0.00 73 1013.2
20260901104044 19 194 6.4 14.5 0.00 0.00 0.00 73 1013.2
20260901103542 20 233 3.2 14.5 0.00 0.00 0.00 72 1013.2
20260901103058 20 254 8.0 14.5 0.00 0.00 0.00 71 1013.1
20260901102542 19 250 6.4 12.9 0.00 0.00 0.00 72 1013.2
20260901102042 19 239 4.8 12.9 0.00 0.00 0.00 72 1013.0
20260901101612 19 219 4.8 11.3 0.00 0.00 0.00 73 1013.2
20260901101041 19 233 4.8 11.3 0.00 0.00 0.00 73 1013.1
20260901100542 19 240 4.8 6.4 0.00 0.00 0.00 73 1013.1
20260901100111 19 225 3.2 6.4 0.00 0.00 0.00 72 1013.1
20260901095541 19 227 3.2 6.4 0.00 0.00 0.00 72 1013.0
20260901095042 19 224 3.2 6.4 0.00 0.00 0.00 72 1013.2
20260901094602 19 225 3.2 6.4 0.00 0.00 0.00 72 1013.2
20260901094043 19 203 3.2 9.7 0.00 0.00 0.00 71 1013.1
20260901093542 20 195 4.8 9.7 0.00 0.00 0.00 71 1013.1
20260901093106 20 213 4.8 9.7 0.00 0.00 0.00 70 1013.3
20260901092542 20 190 4.8 9.7 0.00 0.00 0.00 69 1013.2
20260901092042 20 217 4.8 9.7 0.00 0.00 0.00 68 1013.2
20260901091606 20 209 6.4 9.7 0.00 0.00 0.00 68 1013.3
20260901091042 20 223 4.8 9.7 0.00 0.00 0.00 69 1013.2
20260901090541 20 213 4.8 9.7 0.00 0.00 0.00 69 1013.2
20260901090104 20 217 4.8 8.0 0.00 0.00 0.00 69 1013.2
20260901085541 20 224 4.8 9.7 0.00 0.00 0.00 69 1013.2
20260901085041 20 226 4.8 9.7 0.00 0.00 0.00 69 1013.1
20260901084626 20 233 4.8 9.7 0.00 0.00 0.00 70 1013.2
20260901084041 20 233 3.2 9.7 0.00 0.00 0.00 71 1013.1
20260901083544 20 225 4.8 8.0 0.00 0.00 0.00 70 1013.1
20260901083102 20 219 4.8 8.0 0.00 0.00 0.00 69 1013.1
20260901082541 20 225 4.8 8.0 0.00 0.00 0.00 69 1013.0
20260901082041 20 225 4.8 9.7 0.00 0.00 0.00 70 1012.9
20260901081602 20 233 4.8 12.9 0.00 0.00 0.00 70 1013.0
20260901081041 20 241 6.4 14.5 0.00 0.00 0.00 69 1013.0
20260901080541 20 226 8.0 14.5 0.00 0.00 0.00 69 1013.1
20260901080114 20 230 6.4 11.3 0.00 0.00 0.00 70 1013.2
20260901075542 20 227 6.4 11.3 0.00 0.00 0.00 71 1013.2
20260901075042 19 265 3.2 4.8 0.00 0.00 0.00 72 1013.2
20260901074628 19 244 1.6 4.8 0.00 0.00 0.00 74 1013.2
20260901074047 19 0 0.0 3.2 0.00 0.00 0.00 73 1013.2
20260901073541 19 0 0.0 3.2 0.00 0.00 0.00 73 1013.1
20260901073105 19 0 0.0 3.2 0.00 0.00 0.00 72 1013.1
20260901072541 20 233 1.6 4.8 0.00 0.00 0.00 71 1013.1
20260901072045 20 210 1.6 4.8 0.00 0.00 0.00 70 1013.1
20260901071606 20 206 3.2 4.8 0.00 0.00 0.00 69 1013.1
20260901071041 20 231 1.6 8.0 0.00 0.00 0.00 69 1013.3
20260901070545 20 209 3.2 8.0 0.00 0.00 0.00 68 1013.2
20260901065541 20 205 3.2 6.4 0.00 0.00 0.00 68 1013.3
20260901065041 20 203 3.2 6.4 0.00 0.00 0.00 67 1013.3
20260901064559 20 196 3.2 6.4 0.00 0.00 0.00 68 1013.3
20260901064040 20 230 3.2 6.4 0.00 0.00 0.00 68 1013.4
20260901063540 20 215 3.2 6.4 0.00 0.00 0.00 68 1013.5
20260901063102 20 230 1.6 6.4 0.00 0.00 0.00 67 1013.4
20260901062542 20 198 1.6 6.4 0.00 0.00 0.00 67 1013.5
20260901062042 21 200 3.2 6.4 0.00 0.00 0.00 66 1013.5
20260901061606 21 193 3.2 6.4 0.00 0.00 0.00 65 1013.4
20260901061042 21 214 3.2 6.4 0.00 0.00 0.00 65 1013.4
20260901060542 21 194 1.6 4.8 0.00 0.00 0.00 65 1013.4
20260901060103 21 213 3.2 8.0 0.00 0.00 0.00 64 1013.4
20260901055541 21 238 4.8 8.0 0.00 0.00 0.00 65 1013.5
20260901055041 21 205 4.8 11.3 0.00 0.00 0.00 66 1013.5
20260901054600 21 216 4.8 11.3 0.00 0.00 0.00 65 1013.5
20260901054044 21 203 4.8 9.7 0.00 0.00 0.00 64 1013.4
20260901053542 21 208 4.8 8.0 0.00 0.00 0.00 64 1013.5
20260901053106 21 221 4.8 11.3 0.00 0.00 0.00 64 1013.4
20260901052542 21 237 6.4 11.3 0.00 0.00 0.00 64 1013.5
20260901052041 21 215 6.4 14.5 0.00 0.00 0.00 63 1013.5
20260901051606 21 214 8.0 14.5 0.00 0.00 0.00 63 1013.4
20260901051041 21 229 8.0 14.5 0.00 0.00 0.00 64 1013.5
20260901050544 21 205 6.4 14.5 0.00 0.00 0.00 65 1013.4
20260901050059 21 216 6.4 9.7 0.00 0.00 0.00 65 1013.3
20260901045542 21 208 4.8 9.7 0.00 0.00 0.00 67 1013.3
20260901045044 21 207 3.2 8.0 0.00 0.00 0.00 67 1013.3
20260901044606 21 225 4.8 8.0 0.00 0.00 0.00 67 1013.3
20260901044042 21 227 4.8 11.3 0.00 0.00 0.00 67 1013.4
20260901043542 21 219 6.4 11.3 0.00 0.00 0.00 67 1013.3
20260901043053 21 237 4.8 9.7 0.00 0.00 0.00 67 1013.3
20260901042541 21 211 3.2 6.4 0.00 0.00 0.00 67 1013.2
20260901042042 21 218 3.2 6.4 0.00 0.00 0.00 69 1013.2
20260901041621 21 190 1.6 8.0 0.00 0.00 0.00 68 1013.3
20260901041045 21 205 3.2 8.0 0.00 0.00 0.00 68 1013.2
20260901040541 21 181 4.8 8.0 0.00 0.00 0.00 68 1013.3
20260901040136 21 179 3.2 8.0 0.00 0.00 0.00 69 1013.2
20260901035543 21 200 3.2 8.0 0.00 0.00 0.00 68 1013.2
20260901035041 21 201 4.8 8.0 0.00 0.00 0.00 69 1013.2
20260901034556 21 201 3.2 8.0 0.00 0.00 0.00 70 1013.2
20260901034042 21 184 3.2 4.8 0.00 0.00 0.00 71 1013.2
20260901033544 21 183 3.2 6.4 0.00 0.00 0.00 71 1013.2
20260901033059 21 174 3.2 6.4 0.00 0.00 0.00 72 1013.1
20260901032540 21 160 3.2 6.4 0.00 0.00 0.00 73 1013.1
20260901032044 20 190 3.2 6.4 0.00 0.00 0.00 75 1013.1
20260901031602 20 201 1.6 6.4 0.00 0.00 0.00 76 1013.1
20260901031041 20 186 3.2 6.4 0.00 0.00 0.00 78 1013.1
20260901030542 19 190 1.6 3.2 0.00 0.00 0.00 79 1013.1
20260901030110 19 191 1.6 3.2 0.00 0.00 0.00 81 1013.1
20260901025541 19 182 1.6 3.2 0.00 0.00 0.00 82 1013.0
20260901025041 19 172 0.0 3.2 0.00 0.00 0.00 81 1012.9
20260901024607 19 172 0.0 3.2 0.00 0.00 0.00 81 1012.8
20260901024041 19 172 0.0 4.8 0.00 0.00 0.00 80 1012.8
20260901023541 19 167 0.0 4.8 0.00 0.00 0.00 81 1012.8
20260901023105 20 167 0.0 4.8 0.00 0.00 0.00 81 1012.8
20260901022541 20 167 0.0 4.8 0.00 0.00 0.00 79 1012.8
20260901022041 20 167 0.0 3.2 0.00 0.00 0.00 80 1012.7
20260901021601 20 0 0.0 3.2 0.00 0.00 0.00 82 1012.7
20260901021041 20 0 0.0 3.2 0.00 0.00 0.00 82 1012.7
20260901020543 20 157 0.0 3.2 0.00 0.00 0.00 81 1012.5
20260901020100 20 157 0.0 3.2 0.00 0.00 0.00 80 1012.4
20260901015542 20 157 0.0 3.2 0.00 0.03 0.00 80 1012.5
20260901015042 20 0 0.0 3.2 0.00 0.03 0.00 80 1012.3
20260901014557 20 0 0.0 3.2 0.00 0.03 0.00 80 1012.5
20260901014042 21 0 0.0 3.2 0.00 0.03 0.00 79 1012.6
20260901013542 21 0 0.0 0.0 0.00 0.03 0.00 79 1012.4
20260901013103 21 0 0.0 0.0 0.00 0.03 0.00 77 1012.3
20260901012542 21 0 0.0 0.0 0.00 0.03 0.00 78 1012.2
20260901012041 21 0 0.0 3.2 0.00 0.03 0.00 77 1012.2
20260901011559 22 0 0.0 3.2 0.00 0.03 0.00 76 1012.1
20260901011041 22 157 0.0 3.2 0.00 0.03 0.00 72 1012.2
20260901010542 22 0 0.0 0.0 0.00 0.03 0.00 75 1012.1
20260901010116 22 0 0.0 3.2 0.00 0.03 0.00 76 1012.2
20260901005542 23 0 0.0 3.2 0.00 0.03 0.00 74 1012.2
20260901005040 23 0 0.0 3.2 0.00 0.03 0.00 70 1012.0
20260901004600 23 157 0.0 3.2 0.00 0.03 0.00 67 1012.1
20260901004042 24 0 0.0 3.2 0.00 0.03 0.00 69 1012.1
20260901003542 25 157 1.6 3.2 0.00 0.03 0.00 65 1012.1
20260901003054 25 148 1.6 3.2 0.00 0.03 0.00 63 1012.2
20260901002542 25 146 1.6 3.2 0.00 0.03 0.00 62 1012.1
20260901002041 25 130 1.6 3.2 0.00 0.03 0.00 62 1012.3
20260901001558 26 73 0.0 3.2 0.00 0.03 0.00 62 1012.2
20260901001044 26 73 0.0 3.2 0.00 0.03 0.00 61 1012.2
20260901000541 26 73 0.0 1.6 0.00 0.03 0.00 59 1012.2
20260901000104 27 73 0.0 1.6 0.00 0.03 0.00 58 1012.2
20260831235541 27 73 0.0 3.2 0.00 0.03 0.00 58 1012.1
20260831235042 27 73 1.6 3.2 0.00 0.03 0.00 51 1012.2
20260831234556 27 0 0.0 3.2 0.00 0.03 0.00 53 1012.1
20260831234042 27 68 0.0 3.2 0.00 0.03 0.00 50 1012.2
20260831233541 27 68 0.0 3.2 0.00 0.03 0.00 50 1012.2
20260831233118 27 67 1.6 3.2 0.00 0.03 0.00 50 1012.2
20260831232541 27 64 1.6 3.2 0.00 0.03 0.00 50 1012.1
20260831232042 27 84 0.0 3.2 0.00 0.03 0.00 49 1012.1
20260831231600 27 36 1.6 3.2 0.00 0.03 0.00 50 1012.1
20260831231045 27 59 1.6 3.2 0.00 0.03 0.00 49 1012.1
20260831230540 27 57 1.6 4.8 0.00 0.03 0.00 49 1012.1
20260831230113 27 63 3.2 4.8 0.00 0.03 0.00 47 1011.9
20260831225542 27 55 1.6 3.2 0.00 0.03 0.00 49 1011.9
20260831225041 27 61 1.6 3.2 0.00 0.03 0.00 47 1012.0
20260831224606 28 55 1.6 3.2 0.00 0.03 0.00 46 1012.0
20260831224042 28 348 1.6 3.2 0.00 0.03 0.00 45 1012.0
20260831223544 28 13 0.0 3.2 0.00 0.03 0.00 47 1012.0
20260831223110 27 36 1.6 3.2 0.00 0.03 0.00 46 1012.1
20260831222541 27 350 1.6 1.6 0.00 0.03 0.00 44 1012.2
20260831222042 28 347 1.6 1.6 0.00 0.03 0.00 45 1012.1
20260831221603 27 331 0.0 3.2 0.00 0.03 0.00 45 1012.1
20260831221041 27 331 1.6 3.2 0.00 0.03 0.00 44 1011.9
20260831220541 27 349 1.6 3.2 0.00 0.03 0.00 44 1011.9
20260831220100 27 349 1.6 3.2 0.00 0.03 0.00 48 1011.8
20260831215542 27 347 1.6 3.2 0.00 0.03 0.00 46 1011.9
20260831215040 27 15 0.0 3.2 0.00 0.03 0.00 46 1012.0
20260831214607 27 352 1.6 1.6 0.00 0.03 0.00 46 1011.9
20260831214042 27 346 1.6 1.6 0.00 0.03 0.00 46 1011.9
20260831213543 27 340 0.0 3.2 0.00 0.03 0.00 47 1012.0
20260831213106 27 341 1.6 4.8 0.00 0.03 0.00 48 1012.1
20260831212542 27 360 1.6 4.8 0.00 0.03 0.00 49 1011.9
20260831212042 27 350 1.6 3.2 0.00 0.03 0.00 50 1012.0
20260831211601 27 352 1.6 4.8 0.00 0.03 0.00 52 1012.0
20260831211042 26 13 1.6 4.8 0.00 0.03 0.00 52 1012.0
20260831210541 26 352 1.6 3.2 0.00 0.03 0.00 51 1011.9
20260831210056 26 343 1.6 3.2 0.00 0.03 0.00 52 1012.0
20260831205541 26 337 1.6 3.2 0.00 0.03 0.00 53 1012.1
20260831205042 26 342 1.6 3.2 0.00 0.03 0.00 53 1012.2
20260831204552 26 350 1.6 3.2 0.00 0.03 0.00 55 1012.1
20260831204041 26 11 1.6 3.2 0.00 0.03 0.00 55 1012.1
20260831203541 25 5 1.6 4.8 0.00 0.03 0.00 58 1012.1
20260831203115 25 5 1.6 4.8 0.00 0.03 0.00 61 1012.2
20260831202542 25 17 3.2 4.8 0.00 0.03 0.00 61 1012.1
20260831202041 25 19 1.6 3.2 0.00 0.03 0.00 62 1012.2
20260831201604 25 11 3.2 4.8 0.00 0.03 0.00 62 1012.1
20260831201042 25 18 1.6 6.4 0.00 0.03 0.00 67 1012.1
20260831200542 25 336 3.2 6.4 0.00 0.03 0.00 68 1012.0
20260831200110 25 9 4.8 6.4 0.00 0.03 0.00 67 1012.0
20260831195542 25 15 3.2 4.8 0.00 0.03 0.00 68 1011.9
20260831195041 25 9 3.2 4.8 0.00 0.03 0.00 67 1011.9
20260831194640 25 337 1.6 4.8 0.00 0.03 0.00 70 1012.0
20260831194042 25 11 1.6 4.8 0.00 0.03 0.00 69 1011.9
20260831193542 25 360 3.2 6.4 0.00 0.03 0.00 70 1011.9
20260831193102 25 5 3.2 6.4 0.00 0.03 0.00 68 1011.9
20260831192541 25 5 3.2 6.4 0.00 0.03 0.00 66 1011.8
20260831192042 25 9 3.2 6.4 0.00 0.03 0.00 66 1011.9
20260831191558 26 38 1.6 3.2 0.00 0.03 0.00 65 1011.8
20260831191045 26 264 1.6 3.2 0.00 0.03 0.00 67 1012.0
20260831190541 26 290 0.0 3.2 0.00 0.03 0.00 68 1011.9
20260831190109 25 330 1.6 6.4 0.00 0.03 0.00 69 1011.9
20260831185543 25 290 1.6 6.4 0.00 0.03 0.00 70 1011.9
20260831185042 25 264 3.2 4.8 0.00 0.03 0.00 69 1012.0
20260831184559 25 261 1.6 4.8 0.00 0.03 0.00 68 1012.0
20260831184042 25 273 1.6 4.8 0.00 0.03 0.00 69 1012.0
20260831183542 25 299 1.6 6.4 0.00 0.03 0.00 68 1011.9
20260831183110 25 274 1.6 6.4 0.00 0.03 0.00 69 1012.0
20260831182542 25 287 3.2 6.4 0.00 0.03 0.00 67 1011.9
20260831182045 26 343 1.6 4.8 0.00 0.03 0.00 69 1011.8
20260831181610 25 316 1.6 4.8 0.00 0.03 0.00 70 1011.8
20260831181041 25 146 1.6 4.8 0.00 0.03 0.00 71 1011.8
20260831180542 25 39 0.0 6.4 0.00 0.03 0.00 72 1011.8
20260831180114 25 284 3.2 6.4 0.00 0.03 0.00 72 1011.8
20260831175542 25 252 3.2 6.4 0.00 0.03 0.00 71 1011.8
20260831175046 25 306 1.6 8.0 0.00 0.03 0.00 70 1011.9
20260831174603 25 255 3.2 8.0 0.00 0.03 0.00 72 1011.9
20260831174042 26 298 1.6 3.2 0.00 0.03 0.00 73 1011.8
20260831173545 26 307 0.0 3.2 0.00 0.03 0.00 74 1011.9
20260831173101 26 288 0.0 3.2 0.00 0.03 0.00 74 1011.8
20260831172541 25 0 0.0 3.2 0.00 0.03 0.00 74 1011.7
20260831172041 25 281 0.0 3.2 0.00 0.03 0.00 78 1011.7
20260831171601 25 5 0.0 4.8 0.00 0.03 0.00 78 1011.9
20260831171041 24 269 0.0 6.4 0.00 0.03 0.00 80 1011.9
20260831170542 23 273 3.2 8.0 0.00 0.03 0.00 80 1011.8
20260831170059 24 262 4.8 8.0 0.00 0.03 0.00 79 1011.8
20260831165544 24 280 3.2 8.0 0.00 0.03 0.00 80 1011.7
20260831165042 24 316 3.2 6.4 0.00 0.03 0.00 80 1011.7
20260831164604 24 293 1.6 4.8 0.00 0.03 0.00 80 1011.7
20260831164042 24 286 3.2 8.0 0.00 0.03 0.00 81 1011.6
20260831163542 24 289 3.2 8.0 0.00 0.03 0.00 80 1011.3
20260831163103 23 240 3.2 6.4 0.00 0.03 0.00 80 1011.3
20260831162542 23 287 3.2 6.4 0.00 0.03 0.00 80 1011.5
20260831162039 23 282 1.6 6.4 0.00 0.03 0.00 82 1011.3
20260831161605 23 269 3.2 6.4 0.00 0.03 0.00 82 1011.3
20260831161039 23 268 4.8 11.3 0.00 0.03 0.00 81 1011.4
20260831160542 23 263 4.8 11.3 0.00 0.03 0.00 82 1011.4
20260831160059 23 320 4.8 11.3 0.00 0.03 0.00 82 1011.4
20260831155542 23 286 4.8 11.3 0.00 0.03 0.00 83 1011.3
20260831155042 23 307 4.8 9.7 0.00 0.03 0.00 83 1011.4
20260831154628 23 296 4.8 11.3 0.00 0.03 0.00 83 1011.3
20260831154043 23 284 4.8 11.3 0.00 0.03 0.00 83 1011.4
20260831153544 23 284 4.8 9.7 0.00 0.03 0.00 83 1011.2
20260831153106 23 243 3.2 9.7 0.00 0.03 0.00 84 1011.0
20260831152540 23 257 3.2 8.0 0.00 0.03 0.00 84 1011.0
20260831152041 23 265 3.2 8.0 0.00 0.03 0.00 85 1011.1
20260831151620 23 266 3.2 6.4 0.00 0.03 0.00 86 1011.0
20260831151042 23 261 1.6 4.8 0.00 0.03 0.00 86 1010.8
20260831150542 23 311 1.6 6.4 0.00 0.03 0.00 87 1010.6
20260831150104 23 279 3.2 9.7 0.00 0.03 0.00 87 1010.6
20260831145542 23 262 3.2 9.7 0.00 0.03 0.00 87 1010.6
20260831145042 23 263 3.2 6.4 0.00 0.03 0.00 88 1010.4
20260831144605 23 256 4.8 6.4 0.00 0.03 0.00 88 1010.6
20260831144042 22 264 3.2 6.4 0.00 0.03 0.00 89 1010.4
20260831143543 22 250 3.2 11.3 0.00 0.03 0.00 89 1010.4
20260831143101 22 271 4.8 14.5 0.00 0.03 0.00 90 1010.4
20260831142542 22 262 6.4 14.5 0.00 0.03 0.00 90 1010.4
20260831142042 22 261 9.7 14.5 0.00 0.03 0.00 90 1010.4
20260831141602 22 261 6.4 12.9 0.00 0.03 0.00 90 1010.3
20260831141045 22 249 4.8 12.9 0.00 0.03 0.00 90 1010.2
20260831140543 22 248 6.4 14.5 0.00 0.03 0.00 91 1009.9
20260831140106 22 256 6.4 14.5 0.00 0.03 0.00 91 1010.0
20260831135542 22 267 6.4 11.3 0.00 0.03 0.00 91 1010.1
20260831135046 22 248 6.4 11.3 0.00 0.03 0.00 91 1010.1
20260831134603 22 259 8.0 14.5 0.00 0.03 0.00 91 1010.0
20260831134041 22 222 4.8 16.1 0.00 0.03 0.00 91 1010.0
20260831133541 22 245 8.0 16.1 0.00 0.03 0.00 92 1010.0
20260831133104 22 244 6.4 16.1 0.00 0.03 0.00 92 1009.9
20260831132544 22 218 6.4 12.9 0.00 0.03 0.00 92 1009.8
20260831132044 21 243 4.8 11.3 0.00 0.03 0.00 92 1009.5
20260831131613 21 245 6.4 8.0 0.00 0.03 0.00 93 1009.3
20260831131042 21 221 4.8 8.0 0.00 0.03 0.00 93 1009.3
20260831130542 21 254 3.2 6.4 0.00 0.03 0.00 94 1009.1
20260831130112 21 246 1.6 3.2 0.00 0.03 0.00 94 1008.9
20260831125542 21 225 1.6 3.2 0.00 0.03 0.00 93 1008.8
20260831125042 21 202 1.6 3.2 0.00 0.03 0.00 93 1008.8
20260831124609 21 178 1.6 3.2 0.00 0.03 0.00 93 1009.0
20260831124041 21 182 1.6 3.2 0.00 0.03 0.00 93 1008.8
20260831123541 21 142 0.0 3.2 0.00 0.03 0.00 93 1008.7
20260831123104 21 148 1.6 3.2 0.00 0.03 0.00 93 1008.5
20260831122545 21 196 1.6 4.8 0.00 0.03 0.00 93 1008.7
20260831122043 21 196 1.6 4.8 0.00 0.03 0.00 93 1008.6
20260831121603 21 170 1.6 4.8 0.00 0.03 0.00 93 1008.8
20260831121042 21 143 0.0 3.2 0.00 0.03 0.00 93 1008.6
20260831120543 21 0 0.0 3.2 0.00 0.03 0.00 93 1008.6
20260831120057 21 175 0.0 3.2 0.00 0.03 0.00 93 1008.6
20260831115541 21 168 1.6 3.2 0.00 0.03 0.00 93 1008.5